Location: Boca do Mato
(22.9085°S, 43.2930°W)
Time: 22:40:30
(UTC+00:00)

Cosmos 841 Rocket - Pass Details

Date: 14 July 2020
Orbit: 747 x 772 km, 74.0° (Epoch: 10 August)

Event Time Altitude Azimuth Distance (km) Brightness Sun altitude
Rises 08:10:52 0° 339° (NNW) 3,210 6.7 -18.8°
Reaches altitude 10° 08:13:14 10° 336° (NNW) 2,295 5.9 -18.3°
Maximum altitude 08:18:23 64° 255° (WSW) 853 3.4 -17.1°
Drops below altitude 10° 08:23:39 10° 173° (S) 2,332 5.9 -16.0°
Sets 08:26:05 0° 170° (S) 3,266 6.7 -15.4°
